This is the latest recevied weather packets stored in our database for station/object W9WRP. If no packets are shown the sender has not sent any weather packets the latest 10 day(s).
| Time | Temp. | Humidity | Pressure | Rain* | Wind** | Luminosity | Snow |
|---|---|---|---|---|---|---|---|
| 1787564126 | 28.33° C | 53% | 1015.8 hPa | 0 mm | - | 0 W/m² | - |
| 1787563822 | 28.33° C | 55% | 1015.9 hPa | 0 mm | - | 0 W/m² | - |
| 1787563518 | 28.89° C | 55% | 1016 hPa | 0 mm | - | 0 W/m² | - |
| 1787563216 | 28.89° C | 52% | 1016.1 hPa | 0 mm | - | 0 W/m² | - |
| 1787562913 | 28.89° C | 52% | 1016.1 hPa | 0 mm | - | 0 W/m² | - |
| 1787562609 | 28.89° C | 53% | 1016.6 hPa | 0 mm | - | 0 W/m² | - |
| 1787562305 | 28.33° C | 54% | 1016.9 hPa | 0 mm | - | 0 W/m² | - |
| 1787562000 | 28.33° C | 58% | 1017.2 hPa | 0 mm | - | 0 W/m² | - |
| 1787561697 | 28.33° C | 58% | 1017.1 hPa | 0 mm | - | 0 W/m² | - |
| 1787561393 | 28.89° C | 55% | 1017.5 hPa | 0 mm | - | 0 W/m² | - |
| 1787561089 | 28.89° C | 51% | 1017.4 hPa | 0 mm | - | 0 W/m² | - |
| 1787560783 | 28.89° C | 49% | 1017.6 hPa | 0 mm | - | 0 W/m² | - |
| 1787560478 | 29.44° C | 47% | 1017.7 hPa | 0 mm | - | 0 W/m² | - |
| 1787560170 | 29.44° C | 47% | 1017.9 hPa | 0 mm | - | 0 W/m² | - |
| 1787559866 | 29.44° C | 45% | 1018 hPa | 0 mm | - | 0 W/m² | - |
| 1787559565 | 30° C | 44% | 1018.2 hPa | 0 mm | - | 0 W/m² | - |
| 1787559260 | 30° C | 43% | 1018.1 hPa | 0 mm | - | 0 W/m² | - |
| 1787558955 | 30° C | 43% | 1018.6 hPa | 0 mm | - | 0 W/m² | - |
| 1787558652 | 30.56° C | 41% | 1018.6 hPa | 0 mm | - | 0 W/m² | - |
| 1787558346 | 30° C | 42% | 1018.8 hPa | 0 mm | - | 0 W/m² | - |
| 1787558041 | 30.56° C | 41% | 1019 hPa | 0 mm | - | 0 W/m² | - |
| 1787557736 | 30.56° C | 41% | 1019 hPa | 0 mm | - | 0 W/m² | - |
| 1787557434 | 30.56° C | 41% | 1019.1 hPa | 0 mm | - | 0 W/m² | - |
| 1787557129 | 30.56° C | 41% | 1019.2 hPa | 0 mm | - | 0 W/m² | - |
| 1787556825 | 30.56° C | 42% | 1019.3 hPa | 0 mm | - | 0 W/m² | - |
* Rain latest hour (hover to see other rain measurements)
** Current wind speed in m/s (hover to see current wind gust speed)